Hourly Data Report for October 04, 2016

All times are specified in Local Standard Time (LST). Add 1 hour to adjust for Daylight Saving Time where and when it is observed.

IQALUIT CLIMATE
NUNAVUT

63°44'50.000" N
68°32'40.000" W
33.50 m
2402592
71321
XFB

Download Data

Hourly Data (October 2016)
Hourly Data Report for October 4, 2016
Temp Definition
°C
Dew Point Temp Definition
°C
Rel Hum Definition
%
Wind Dir Definition
10's deg

Wind Spd Definition
km/h
Visibility Definition
km
Stn Press Definition
kPa
Hmdx Definition


Wind Chill Definition


Weather Definition


TIME
00:00 -2.0 -4.3 84 9 11   100.56   -6 LegendNANA
01:00 -2.0 -4.2 85 10 7   100.46   -5 LegendNANA
02:00 -2.0 -4.1 86 12 10   100.36   -6 LegendNANA
03:00 -2.3 -2.9 96 11 13   100.28   -7 LegendNANA
04:00 -2.2 -3.0 94 12 18   100.11   -8 LegendNANA
05:00 -1.8 -3.0 92 14 17   99.96   -7 LegendNANA
06:00 -1.4 -2.9 89 15 17   99.89   -7 LegendNANA
07:00 -1.2 -3.0 88 13 15   99.75   -6 LegendNANA
08:00 -1.1 -2.8 88 12 18   99.69   -6 LegendNANA
09:00 -0.9 -2.0 93 12 25   99.55   -7 LegendNANA
10:00 -0.4 -1.9 90 12 22   99.44   -6 LegendNANA
11:00 0.2 -1.5 88 13 19   99.36     LegendNANA
12:00 0.0 -0.8 94 14 25   99.29   -6 LegendNANA
13:00 -0.2 -0.7 97 14 24   99.29   -6 LegendNANA
14:00 -0.1 -0.6 96 14 23   99.29   -6 LegendNANA
15:00
16:00 0.3 -0.1 97 14 16   99.31     LegendNANA
17:00 0.3 -0.2 97 14 14   99.31     LegendNANA
18:00 0.5 -0.3 95 14 11   99.33     LegendNANA
19:00 0.7 -0.1 94 12 7   99.36     LegendNANA
20:00 0.8 -0.3 93 6 16   99.41     LegendNANA
21:00 0.7 -0.5 91 35 4   99.46     LegendNANA
22:00 0.5 -1.2 88 1 12   99.48     LegendNANA
23:00 1.0 -0.8 88 8 4   99.47     LegendNANA

Notes on Data Quality.

Legend

  • E = Estimated
  • M = Missing
  • NA = Not Available
  • ‡ = Partner data that is not subject to review by the National Climate Archives
Date modified: